Погода в Сычеве

Россия / Курганская область     55°26′14″N   64°57′21″E
темп.,
°C
ветер,
м/с
пор.,
м/с
влажн.,
%
обл.,
%
осадки,
мм/ч
давл.,
гПа
погр.,
м
21 января, чт
чт2123:00−15зюз41094100 0.8 1011579
02:00−15зюз51193100 0.1 1012508
05:00−18з41092100 0.1 1013379
08:00−20з4993100 0.0 1012308
11:00−20з499197 0.0 1014412
14:00−19з4791100 0.0 1013450
17:00−22з369599 0.0 1013148
20:00−23з38969 0.0 1014166
22 января, пт
пт2223:00−23з359828 0.0 101499
02:00−23з359890 0.0 1014102
05:00−22з259795 0.0 1015122
08:00−22з2397100 0.0 101688
11:00−20зсз249699 0.1 1017223
14:00−18зсз2393100 0.1 1018387
17:00−20ссз2298100 0.3 101950
20:00−23с359797 0.1 1022194
23 января, сб
сб2323:00−28с369690 0.1 1024139
02:00−30ссз249747 0.0 102785
05:00−31с349737 0.0 103072
08:00−33ссз23961 0.0 103344
11:00−31ссз249413 0.0 1036199
14:00−29ссз239076 0.0 1037333
17:00−33ссз129683 0.0 103819
20:00−33ююв0095100 0.0 103919
24 января, вс
вс2423:00−32ю1295100 0.0 103843
02:00−30ю2494100 0.0 1038157
05:00−29ююв3598100 0.1 1037212
08:00−28юв3598100 0.4 1037228
11:00−26юв3597100 0.6 1037255
14:00−23вюв3496100 0.1 1037309
17:00−26вюв3598100 0.1 1038149
20:00−26вюв3697100 0.0 1038220
25 января, пн
пн2523:00−25вюв379699 0.0 1038226
02:00−24вюв379796 0.1 1037258
05:00−23юв369898 0.6 1035253
08:00−21юв3698100 0.6 1035245
11:00−19вюв3597100 1.0 1034256
14:00−17вюв3495100 0.1 1033301
17:00−17вюв3497100 0.3 1033226
20:00−18в2498100 0.3 1034124